ハートレー第1彗星

100P/Hartley 1 (2009)

English version
Home page
Updated on September 15, 2009

---------------------------------------------------------------------

・ プロフィール

・ 軌道要素

The following orbital elements are taken from MPC 56805:

Epoch 2009 Nov. 25.0 TT = JDT 2455160.5
T 2009 Dec. 6.1473 TT                                   MPC
q   1.982408             (2000.0)            P               Q
n   0.1565268      Peri.  181.7079      -0.7728420      +0.5763349
a   3.409914       Node    37.8448      -0.5769798      -0.4638898
e   0.418634       Incl.   25.6542      -0.2642150      -0.6727884
P   6.30
From 172 observations 1985-2003, mean residual 0".8.  Nongravitational
     parameters A1 = +0.24, A2 = -0.0018.

・ 光度変化

        m1 = 4.0 + 5 logΔ + 40 log r

---------------------------------------------------------------------

軌道要素はMPCのEphemerides and Orbital Elementsに掲載されたものです。
光度グラフはComet for Windowsで作成したものです。

---------------------------------------------------------------------

Copyright(C) Seiichi Yoshida (comet@aerith.net). All rights reserved.